Location: Cedar Ridge
(38.0658°N, 120.2769°W)
Time: 22:58:25
(UTC+00:00)

Cosmos 1666 - Pass Details

Date: 10 September 2024
Orbit: 412 x 429 km, 82.5° (Epoch: 12 October)

Event Time Altitude Azimuth Distance (km) Brightness Sun altitude
Rises 12:10:58 0° 345° (NNW) 2,385 6.2 -17.7°
Reaches altitude 10° 12:13:04 10° 339° (NNW) 1,509 5.1 -17.3°
Enters shadow 12:16:02 43° 276° (W) 601 2.6 -16.7°
